Flag for U.S.A. Weather past 2 weeks in Abilene, Texas, U.S.A.

Now
78 °F

Clear.


Feels Like: 80 °F
Forecast: 73 / 97 °F
Wind: 7 mph from South

Location: Abilene Regional Airport

Current Time: Jul 25, 2014 at 4:34:33 AM

Latest Report: Jul 25, 2014 at 3:52 AM


Visibility: 10 mi

Pressure: 29.95 "Hg

Humidity: 66%

Dew point: 66 °F

Location of AbileneLocation

Historic Weather in Abilene — Graph

°F

Abilene temperature yesterday

Maximum temperature yesterday: 96 °F (at 4:52 PM)
Minimum temperature yesterday: 75 °F (at 3:52 AM)
Average temperature yesterday: 86 °F

Past Weeks' High & Low Weather Summary

 TemperatureHumidityPressure
High100 °F (Jul 14, 4:52 PM)100% (Jul 17, 9:02 AM)30.11 "Hg (Jul 17, 9:02 AM)
Low65 °F (Jul 19, 3:52 AM)16% (Jul 12, 3:52 PM)29.78 "Hg (Jul 17, 3:52 AM)
Average82 °F58%29.96 "Hg
* Reported Jul 10 2:52 AM — Jul 25 2:52 AM, Abilene, Weather by CustomWeather, © 2014

Note: Actual official high and low records may vary slightly from our data, if they occured in-between our weather recording intervals... More about our weather records

Advertising

Abilene weather history for previous 24 hours

 ConditionsComfort  
Time TempWeatherWind HumidityBarometerVisibility
2:52 AM
Jul 25
77 °FClear.7 mph69%29.95 "Hg10 mi
1:52 AM77 °FClear.8 mph69%29.96 "Hg10 mi
12:52 AM79 °FClear.8 mph65%29.96 "Hg10 mi
11:52 PM
Jul 24
81 °FClear.8 mph60%29.96 "Hg10 mi
10:52 PM85 °FClear.13 mph53%29.95 "Hg10 mi
9:52 PM87 °FClear.10 mph46%29.93 "Hg10 mi
8:52 PM90 °FSunny.9 mph42%29.91 "Hg10 mi
7:52 PM93 °FSunny.14 mph38%29.90 "Hg10 mi
6:52 PM95 °FSunny.13 mph37%29.90 "Hg10 mi
5:52 PM95 °FSunny.8 mph36%29.90 "Hg10 mi
4:52 PM96 °FSunny.12 mph34%29.93 "Hg10 mi
3:52 PM95 °FScattered clouds.8 mph37%29.94 "Hg10 mi
2:52 PM95 °FPassing clouds.5 mph37%29.96 "Hg10 mi
1:52 PM95 °FPartly sunny.8 mph37%29.98 "Hg10 mi
12:52 PM93 °FScattered clouds.8 mph41%30.00 "Hg10 mi
11:52 AM92 °FSunny.No wind43%30.01 "Hg10 mi
10:52 AM89 °FSunny.No wind46%30.02 "Hg10 mi
9:52 AM85 °FPassing clouds.No wind55%30.02 "Hg10 mi
8:52 AM80 °FSunny.6 mph64%30.01 "Hg9 mi
7:52 AM77 °FSunny.3 mph69%30.01 "Hg9 mi
6:52 AM76 °FClear.No wind69%30.00 "Hg10 mi
5:52 AM76 °FClear.6 mph72%29.99 "Hg10 mi
4:52 AM76 °FClear.7 mph69%29.98 "Hg10 mi
Weather by CustomWeather, © 2014

See weather overviewHow to use our weather pages